Location: Vancouver
(49.2500°N, 123.1330°W)
Time: 21:43:12
(UTC-07:00)

Transit 2A Rocket - Visible Passes

Search period start: 18 April 2014 00:00
Search period end: 28 April 2014 00:00
Orbit: 593 x 916 km, 66.7° (Epoch: 17 April)

Date Brightness Start Highest point End Pass type
(mag) Time Alt. Az. Time Alt. Az. Time Alt. Az.
18 Apr 5.7 00:41:48 10° NNW 00:44:56 41° NNW 00:44:56 41° NNW visible
18 Apr 7.1 22:18:32 10° N 22:20:43 13° NNE 22:22:51 10° NE visible
19 Apr 5.6 00:00:20 10° NNW 00:04:19 40° NNE 00:04:19 40° NNE visible
19 Apr 6.9 01:43:16 10° NW 01:44:16 15° WNW 01:44:16 15° WNW visible
19 Apr 7.3 21:37:24 10° N 21:38:37 11° NNE 21:39:49 10° NNE visible
19 Apr 6.0 23:18:56 10° NNW 23:22:54 28° NE 23:23:42 26° ENE visible
20 Apr 6.3 01:01:25 10° NW 01:03:39 27° WNW 01:03:39 27° WNW visible
20 Apr 6.6 22:37:35 10° NNW 22:41:02 20° NNE 22:43:06 15° ENE visible
21 Apr 5.4 00:19:46 10° NW 00:23:04 47° NW 00:23:04 47° NW visible
21 Apr 6.9 21:56:17 10° NNW 21:59:03 15° NNE 22:01:44 10° ENE visible
21 Apr 4.9 23:38:14 10° NNW 23:42:30 58° NE 23:42:30 58° NE visible
22 Apr 7.0 01:21:42 10° WNW 01:22:27 13° WNW 01:22:27 13° WNW visible
22 Apr 7.1 21:15:04 10° N 21:17:00 12° NNE 21:18:54 10° NE visible
22 Apr 5.5 22:56:47 10° NNW 23:01:01 37° NE 23:01:57 33° ENE visible
23 Apr 6.3 00:39:36 10° NW 00:41:55 24° WNW 00:41:55 24° WNW visible
23 Apr 6.2 22:15:23 10° NNW 22:19:14 26° NE 22:21:25 18° E visible
23 Apr 5.2 23:57:48 10° NW 00:01:23 48° W 00:01:23 48° W visible
24 Apr 6.6 21:34:03 10° NNW 21:37:20 19° NNE 21:40:28 10° ENE visible
24 Apr 4.3 23:16:10 10° NW 23:20:40 86° NE 23:20:53 80° ESE visible
25 Apr 7.2 01:00:41 10° W 01:00:51 10° W 01:00:51 10° W visible
25 Apr 6.9 20:52:47 10° N 20:55:20 15° NNE 20:57:49 10° ENE visible
25 Apr 4.9 22:34:39 10° NNW 22:39:04 53° NE 22:40:24 37° ESE visible
26 Apr 6.4 00:17:56 10° WNW 00:20:22 20° W 00:20:22 20° W visible
26 Apr 5.6 21:53:12 10° NNW 21:57:21 34° NE 21:59:57 18° E visible
26 Apr 5.4 23:35:55 10° NW 23:39:55 36° WSW 23:39:55 36° WSW visible
27 Apr 6.2 21:11:50 10° NNW 21:15:32 24° NE 21:19:04 10° E visible
27 Apr 4.7 22:54:09 10° NW 22:58:33 63° WSW 22:59:30 48° S visible
